{"data":{"norad_id":60286,"intl_designator":"2024-132J","name":"STARLINK-31656","alt_names":[],"object_type":"PAYLOAD","status":"ACTIVE","operator":null,"country":"US","launch_date":"2024-07-28","launch_site_code":"AFETR","launch_vehicle":null,"mission":null,"orbit_class":"UNKNOWN","rcs_meters":null,"size_class":null,"mass_kg":null,"dimensions":null,"purposes":["comms"],"wikipedia_slug":null,"has_3d_model":false,"image_url":null,"decayed_at":null,"tle_current":{"epoch":"2026-05-25T04:10:13.195776Z","epoch_age_seconds":63201,"freshness":"FRESH","line1":"1 60286U 24132J   26145.17376384  .00021670  00000+0  74399-3 0  9991","line2":"2 60286  53.1609  56.9501 0001730  87.2269 272.8930 15.30096146103278","mean_motion":15.30096146,"eccentricity":0.000173,"inclination_deg":53.1609,"raan_deg":56.9501,"arg_perigee_deg":87.2269,"mean_anomaly_deg":272.893,"bstar":0.00074399,"rev_number":10327,"period_min":94.111733028311,"perigee_km":474.3394927261,"apogee_km":476.71085983909,"semimajor_km":6853.6621762826,"source":"CELESTRAK","updated_at":"2026-05-25T13:38:19.205162Z"}}}